Hourly Data Report for February 02, 2017

All times are specified in Local Standard Time (LST). Add 1 hour to adjust for Daylight Saving Time where and when it is observed.

COLVILLE LAKE
NORTHWEST TERRITORIES

67°01'17.040" N
126°07'23.070" W
271.00 m
2200824
71055
WFX

Download Data

Hourly Data (February 2017)
Hourly Data Report for February 2, 2017
Temp Definition
°C
Dew Point Temp Definition
°C
Rel Hum Definition
%
Wind Dir Definition
10's deg

Wind Spd Definition
km/h
Visibility Definition
km
Stn Press Definition
kPa
Hmdx Definition


Wind Chill Definition


Weather Definition


TIME
00:00 -10.3 -11.5 91 24 12   100.02   -16 LegendNANA
01:00 -9.6 -10.8 91 25 15   99.99   -16 LegendNANA
02:00 -8.6 -9.7 91 29 17   99.95   -15 LegendNANA
03:00 -10.2 -11.7 89 28 14   99.91   -17 LegendNANA
04:00 -10.3 -12.1 86 31 24   99.91   -19 LegendNANA
05:00 -11.5 -13.6 84 31 23   99.93   -20 LegendNANA
06:00 -12.2 -14.2 85 31 16   99.93   -20 LegendNANA
07:00 -14.6 -17.3 80 33 21   99.97   -24 LegendNANA
08:00 -18.1 -20.1 84 32 8   99.96   -24 LegendNANA
09:00 -17.4 -20.8 74 31 21   99.97   -27 LegendNANA
10:00 -18.2 -21.8 74 31 21   99.96   -28 LegendNANA
11:00 -18.6 -22.5 72 30 15   99.96   -27 LegendNANA
12:00 -18.2 -22.2 71 29 18   99.94   -28 LegendNANA
13:00 -18.2 -22.4 69 29 18   99.91   -28 LegendNANA
14:00 -17.8 -22.7 65 29 16   99.88   -27 LegendNANA
15:00 -17.5 -22.6 65 30 14   99.92   -26 LegendNANA
16:00 -17.1 -21.9 66 29 14   99.86   -25 LegendNANA
17:00 -16.7 -21.4 67 30 15   99.81   -25 LegendNANA
18:00 -16.8 -19.9 77 30 14   99.75   -25 LegendNANA
19:00 -18.3 -21.0 79 22 12   99.72   -26 LegendNANA
20:00 -19.0 -21.3 82 22 8   99.66   -25 LegendNANA
21:00 -18.0 -20.1 84 20 12   99.59   -26 LegendNANA
22:00 -17.9 -20.0 84 19 10   99.51   -25 LegendNANA
23:00 -17.2 -19.1 85 21 12   99.44   -25 LegendNANA

Notes on Data Quality.

Legend

  • E = Estimated
  • M = Missing
  • NA = Not Available
  • ‡ = Partner data that is not subject to review by the National Climate Archives
Date modified: